Location: Ariel
(45.9570°N, 122.5700°W)
Time: 00:15:44
(UTC-07:00)

Altair - Pass Details

Date: 29 July 2019
Orbit: 1501 x 1683 km, 47.2° (Epoch: 23 August)

Event Time Altitude Azimuth Distance (km) Brightness Sun altitude
Rises 09:59:03 0° 214° (SW) 4,702 9.9 41.2°
Reaches altitude 10° 10:02:19 10° 208° (SSW) 3,700 9.5 41.7°
Maximum altitude 10:10:52 43° 141° (SE) 2,006 9.7 43.1°
Drops below altitude 10° 10:19:19 10° 74° (ENE) 3,655 10.2 44.5°
Sets 10:22:30 0° 68° (ENE) 4,641 10.5 45.0°
